WetterOnline ( http://www.wetteronline.de )

Wetter aktuell Denkendorf

Aktuelles Wetter: Gelbelsee (539m)

6-stündlich | Neueste Meldungen
Ortszeit Temperatur Wetter
Mo, 24.07. 2:00 14.4° C wolkig
So, 23.07. 20:00 19.7° C bewölkt
So, 23.07. 14:00 19.2° C bewölkt
So, 23.07. 8:00 16.2° C bewölkt
Ortszeit Temperatur Wetter
Mo, 24.07. 6:00 13.9° C bedeckt
Mo, 24.07. 5:30 13.6° C bedeckt
Mo, 24.07. 5:00 13.6° C bewölkt
Mo, 24.07. 4:30 13.8° C bewölkt
Mo, 24.07. 4:00 13.2° C leicht bewölkt
Mo, 24.07. 3:30 13.5° C wolkig
Ortszeit Relative Feuchte Sichtweite
Mo, 24.07. 2:00 88% 45 km
So, 23.07. 20:00 55% 65 km
So, 23.07. 14:00 70% 26 km
So, 23.07. 8:00 94% 30 km
Ortszeit Relative Feuchte Sichtweite
Mo, 24.07. 6:00 87% 35 km
Mo, 24.07. 5:30 87% 40 km
Mo, 24.07. 5:00 84% 30 km
Mo, 24.07. 4:30 82% 65 km
Mo, 24.07. 4:00 88% 60 km
Mo, 24.07. 3:30 88% 45 km
Ortszeit Niederschlagsmenge Niederschlagsart
Mo, 24.07. 2:00 0.0 l/m2 in 6 Std. -
So, 23.07. 20:00 3 l/m2 in 12 Std. -
So, 23.07. 14:00 3 l/m2 in 6 Std. Regen
So, 23.07. 8:00 2 l/m2 in 12 Std. Regen
Ortszeit Niederschlagsmenge Niederschlagsart
Mo, 24.07. 6:00 0.0 l/m2 in 1 Std. -
Mo, 24.07. 5:30 keine Meldung -
Mo, 24.07. 5:00 0.0 l/m2 in 1 Std. -
Mo, 24.07. 4:30 keine Meldung -
Mo, 24.07. 4:00 0.0 l/m2 in 1 Std. -
Mo, 24.07. 3:30 keine Meldung -
Ortszeit Stärke Spitze Richtung
km/h Bft. km/h Grad Sektor
Mo, 24.07. 2:00 2 1 15 60° NO
So, 23.07. 20:00 11 2 36 260° W
So, 23.07. 14:00 17 3 33 310° NW
So, 23.07. 8:00 6 1 33 200° S
Ortszeit Stärke Spitze Richtung
km/h Bft. km/h Grad Sektor
Mo, 24.07. 6:00 7 2 11 140° SO
Mo, 24.07. 5:30 7 2 11 110° O
Mo, 24.07. 5:00 6 1 7 90° O
Mo, 24.07. 4:30 6 1 7 80° O
Mo, 24.07. 4:00 0 0 4 - -
Mo, 24.07. 3:30 0 0 4 - -
Ortszeit Untergrenze Bedeckung Gattung
total tief tief mittel hoch
Mo, 24.07. 2:00 2100 m 8/8 3/8 - - -
So, 23.07. 20:00 1800 m 7/8 7/8 - - -
So, 23.07. 14:00 900 m 7/8 7/8 - - -
So, 23.07. 8:00 2400 m 8/8 7/8 - - -
Ortszeit Bedeckungsgrad in Achtel und Wolkenuntergrenze
Mo, 24.07. 6:00 1(1230m) 8(1800m)
Mo, 24.07. 5:30 8(1800m)
Mo, 24.07. 5:00 7(1800m) 7(3300m)
Mo, 24.07. 4:30 7(1800m)
Mo, 24.07. 4:00 1(1170m)
Mo, 24.07. 3:30 4(1200m) 6(4800m)
Ortszeit Luftdruck NN (hPa) Tendenz (hPa in 3 Std.)
Mo, 24.07. 2:00 1015 - 1,5
So, 23.07. 20:00 1015 - 0,6
So, 23.07. 14:00 1017 + 0,1
So, 23.07. 8:00 1016 + 0,5
Ortszeit Luftdruck NN (hPa) Tendenz (hPa in 3 Std.)
Mo, 24.07. 6:00 1012 - 2,1
Mo, 24.07. 5:30 1012 - 2,2
Mo, 24.07. 5:00 1013 - 2,4
Mo, 24.07. 4:30 1013 - 2,4
Mo, 24.07. 4:00 1014 - 2,3
Mo, 24.07. 3:30 1014 - 2,2
Ortszeit Schneehöhe (cm)
Mo, 24.07. 2:00 -
So, 23.07. 20:00 -
So, 23.07. 14:00 -
So, 23.07. 8:00 -
Ortszeit Schneehöhe (cm)
Mo, 24.07. 6:00 -
Mo, 24.07. 5:30 -
Mo, 24.07. 5:00 -
Mo, 24.07. 4:30 -
Mo, 24.07. 4:00 -
Mo, 24.07. 3:30 -
Link zu dieser Seite / Seite empfehlen

Das Wetter in ...